Hickory, NC

3:00 PM EDT on October 01, 2016 (GMT -0400)
Hickory Regional

Weather History for KHKY - April, 2013

Change the Weather History Date:

Monday, April 1, 2013

  Actual Average Record
Temperature  
Mean Temperature 57 °F -  
Max Temperature 69 °F 68 °F 85 °F (1953)
Min Temperature 46 °F 42 °F 27 °F (1987)
Degree Days  
Heating Degree Days 8    
Growing Degree Days 7 (Base 50)    
Moisture  
Dew Point 42 °F    
Average Humidity 63    
Maximum Humidity 100    
Minimum Humidity 31    
Precipitation  
Precipitation 0.00 in - - ()
Sea Level Pressure  
Sea Level Pressure 29.86 in    
Wind  
Wind Speed 4 mph (WNW)    
Max Wind Speed 17 mph    
Max Gust Speed 26 mph    
Visibility 9 miles    
Events Rain    
Averages and records for this station are not official NWS values.
T = Trace of Precipitation, MM = Missing Value Source: NWS Daily Summary

Daily Weather History Graph

Daily Weather History Graph

Search for Another Location

Airport or City:

Trip Planner

Search our weather history database for the weather conditions in past years. The results will help you decide how hot, cold, wet, or windy it might be!

Date:

Astronomy

Apr. 01, 2013 Rise Set
Actual Time 7:11 AM EDT 7:47 PM EDT
Civil Twilight 6:45 AM EDT 8:13 PM EDT
Nautical Twilight 6:15 AM EDT 8:43 PM EDT
Astronomical Twilight 5:44 AM EDT 9:14 PM EDT
Moon 12:45 AM EDT 11:05 AM EDT
Length of Visible Light 13h 27m
Length of Day
12h 35m
Waning Gibbous, 67% of the Moon is Illuminated
Apr 1
Waning Gibbous
Apr 3
Last Quarter
Apr 10
New
Apr 18
First Quarter
Apr 25
Full

Hourly Weather History & Observations

Time (EDT) Temp. Dew Point Humidity Pressure Visibility Wind Dir Wind Speed Gust Speed Precip Events Conditions
12:53 AM 53.1 °F 52.0 °F 96% 29.82 in 10.0 mi Calm Calm - 0.00 in Rain Light Rain
1:53 AM 53.1 °F 52.0 °F 96% 29.81 in 10.0 mi Calm Calm - 0.00 in   Overcast
2:53 AM 52.0 °F 51.1 °F 97% 29.81 in 9.0 mi Calm Calm - N/A   Overcast
3:00 AM 51.8 °F 50.0 °F 94% 29.85 in 1.8 mi Calm Calm - N/A   Overcast
3:12 AM 51.8 °F 51.8 °F 100% 29.84 in 3.0 mi Calm Calm - N/A   Overcast
3:53 AM 53.1 °F 50.0 °F 89% 29.80 in 10.0 mi NW 4.6 mph - N/A   Overcast
4:53 AM 51.1 °F 48.9 °F 92% 29.81 in 10.0 mi Calm Calm - N/A   Scattered Clouds
5:53 AM 50.0 °F 45.0 °F 83% 29.83 in 10.0 mi Calm Calm - N/A   Clear
6:53 AM 50.0 °F 44.1 °F 80% 29.85 in 10.0 mi NW 3.5 mph - N/A   Clear
7:53 AM 46.9 °F 44.1 °F 90% 29.88 in 10.0 mi Calm Calm - N/A   Clear
8:53 AM 52.0 °F 43.0 °F 71% 29.88 in 10.0 mi WSW 3.5 mph - N/A   Clear
9:53 AM 57.0 °F 41.0 °F 55% 29.87 in 10.0 mi West 5.8 mph - N/A   Clear
10:53 AM 61.0 °F 39.9 °F 46% 29.88 in 10.0 mi NW 8.1 mph - N/A   Clear
11:53 AM 64.0 °F 37.9 °F 38% 29.88 in 10.0 mi NW 9.2 mph 16.1 mph N/A   Clear
1:53 PM 68.0 °F 36.0 °F 31% 29.86 in 10.0 mi West 15.0 mph 20.7 mph N/A   Clear
2:53 PM 66.0 °F 36.0 °F 33% 29.85 in 10.0 mi West 11.5 mph 17.3 mph N/A   Overcast
3:53 PM 66.0 °F 36.0 °F 33% 29.85 in 10.0 mi West 17.3 mph - N/A   Partly Cloudy
4:53 PM 63.0 °F 36.0 °F 37% 29.86 in 10.0 mi WNW 16.1 mph 26.5 mph N/A   Overcast
5:53 PM 62.1 °F 37.0 °F 39% 29.86 in 10.0 mi WNW 12.7 mph 21.9 mph N/A   Overcast
6:53 PM 61.0 °F 37.9 °F 42% 29.87 in 10.0 mi WNW 10.4 mph 19.6 mph N/A   Mostly Cloudy
7:53 PM 59.0 °F 36.0 °F 42% 29.88 in 10.0 mi WNW 6.9 mph - N/A   Mostly Cloudy
8:53 PM 55.9 °F 35.1 °F 45% 29.89 in 10.0 mi WNW 8.1 mph - N/A   Clear
9:53 PM 55.0 °F 34.0 °F 45% 29.91 in 10.0 mi WNW 5.8 mph - N/A   Scattered Clouds
10:53 PM 52.0 °F 34.0 °F 50% 29.92 in 10.0 mi Calm Calm - N/A   Partly Cloudy
11:53 PM 53.1 °F 33.1 °F 47% 29.93 in 10.0 mi WNW 5.8 mph - N/A   Partly Cloudy